VRE739 DRRN-DFFD

Flight info

Callsign VRE739
Flight time 0h 39m
Altitude 28000
Route BANGA1E BANGA G854 BULSA EDGAS1L
Aircraft A320/M-SDE3FGHIRWY/LB1

Departure

Time 2026-04-24 05:04
Airport Diori Hamani International Airport (DRRN)

Arrival

Time 2026-04-24 05:44
Airport Ouagadougou Thomas Sankara International Airport (DFFD)
Time Latitude Longitude Altitude Speed Heading
2026-04-24 04:48 13.47804 2.17951 731 ft 0 kts 177°
2026-04-24 04:56 13.47811 2.17951 731 ft 4 kts 180°
2026-04-24 04:57 13.47838 2.17953 730 ft 4 kts 197°
2026-04-24 04:57 13.47862 2.17965 729 ft 4 kts 217°
2026-04-24 04:57 13.47881 2.17984 728 ft 4 kts 240°
2026-04-24 04:57 13.47890 2.18008 730 ft 3 kts 266°
2026-04-24 04:58 13.47890 2.18012 730 ft 0 kts 268°
2026-04-24 04:59 13.47890 2.18010 730 ft 1 kts 268°
2026-04-24 05:00 13.47889 2.17982 729 ft 7 kts 268°
2026-04-24 05:00 13.47886 2.17909 731 ft 13 kts 268°
2026-04-24 05:00 13.47881 2.17792 731 ft 19 kts 267°
2026-04-24 05:00 13.47877 2.17665 732 ft 8 kts 288°
2026-04-24 05:01 13.47941 2.17647 732 ft 12 kts 358°
2026-04-24 05:01 13.48038 2.17643 732 ft 16 kts 358°
2026-04-24 05:01 13.48131 2.17638 731 ft 14 kts 357°
2026-04-24 05:01 13.48195 2.17660 730 ft 10 kts 94°
2026-04-24 05:02 13.48196 2.17694 730 ft 0 kts 86°
2026-04-24 05:03 13.48199 2.17756 730 ft 34 kts 86°
2026-04-24 05:04 13.48226 2.18271 730 ft 106 kts 87°
2026-04-24 05:04 13.48269 2.19235 720 ft 161 kts 87°
2026-04-24 05:04 13.48321 2.20465 1074 ft 178 kts 91°
2026-04-24 05:04 13.47903 2.21636 1791 ft 180 kts 124°
2026-04-24 05:05 13.46993 2.22555 2281 ft 193 kts 140°
2026-04-24 05:05 13.45814 2.23202 2573 ft 209 kts 160°
2026-04-24 05:05 13.44337 2.23441 3090 ft 221 kts 181°
2026-04-24 05:05 13.42779 2.23074 3301 ft 243 kts 208°
2026-04-24 05:06 13.41433 2.21931 3558 ft 263 kts 236°
2026-04-24 05:06 13.40694 2.20170 3943 ft 276 kts 264°
2026-04-24 05:06 13.40785 2.18209 4636 ft 278 kts 281°
2026-04-24 05:06 13.41108 2.16243 5411 ft 280 kts 281°
2026-04-24 05:07 13.41441 2.14257 6219 ft 283 kts 281°
2026-04-24 05:07 13.41777 2.12259 6993 ft 285 kts 281°
2026-04-24 05:07 13.42115 2.10235 7755 ft 288 kts 281°
2026-04-24 05:07 13.42452 2.08197 8543 ft 291 kts 281°
2026-04-24 05:08 13.42793 2.06135 9327 ft 294 kts 281°
2026-04-24 05:08 13.43135 2.04042 10048 ft 301 kts 279°
2026-04-24 05:08 13.43121 2.01809 10265 ft 327 kts 263°
2026-04-24 05:08 13.42588 1.99453 10459 ft 350 kts 254°
2026-04-24 05:09 13.41772 1.97053 10955 ft 360 kts 250°
2026-04-24 05:09 13.40867 1.94642 11592 ft 364 kts 250°
2026-04-24 05:09 13.39982 1.92232 12246 ft 368 kts 251°
2026-04-24 05:09 13.39129 1.89742 12897 ft 372 kts 253°
2026-04-24 05:10 13.38320 1.87199 13545 ft 377 kts 254°
2026-04-24 05:10 13.37541 1.84617 14146 ft 380 kts 255°
2026-04-24 05:10 13.36775 1.82013 14819 ft 381 kts 255°
2026-04-24 05:10 13.36010 1.79395 15487 ft 382 kts 255°
2026-04-24 05:11 13.35242 1.76777 16136 ft 383 kts 255°
2026-04-24 05:11 13.34469 1.74155 16808 ft 384 kts 255°
2026-04-24 05:11 13.33687 1.71525 17452 ft 385 kts 255°
2026-04-24 05:11 13.32896 1.68893 18096 ft 386 kts 255°
2026-04-24 05:12 13.32100 1.66250 18619 ft 388 kts 255°
2026-04-24 05:12 13.31298 1.63591 19095 ft 391 kts 255°
2026-04-24 05:12 13.30503 1.60950 19555 ft 395 kts 255°
2026-04-24 05:12 13.29692 1.58248 20010 ft 398 kts 255°
2026-04-24 05:13 13.28048 1.52760 20914 ft 405 kts 255°
2026-04-24 05:13 13.27217 1.49987 21359 ft 408 kts 255°
2026-04-24 05:13 13.26380 1.47198 21799 ft 411 kts 255°
2026-04-24 05:14 13.25536 1.44381 22223 ft 414 kts 255°
2026-04-24 05:14 13.24683 1.41537 22648 ft 417 kts 255°
2026-04-24 05:14 13.23820 1.38682 23058 ft 421 kts 255°
2026-04-24 05:14 13.22952 1.35801 23442 ft 424 kts 255°
2026-04-24 05:15 13.22075 1.32900 23775 ft 426 kts 255°
2026-04-24 05:15 13.21206 1.30023 24131 ft 428 kts 255°
2026-04-24 05:15 13.20312 1.27061 24492 ft 430 kts 255°
2026-04-24 05:15 13.19425 1.24125 24838 ft 432 kts 255°
2026-04-24 05:16 13.18547 1.21212 25175 ft 433 kts 255°
2026-04-24 05:16 13.17657 1.18251 25518 ft 435 kts 255°
2026-04-24 05:16 13.16760 1.15277 25853 ft 437 kts 255°
2026-04-24 05:16 13.15856 1.12294 26191 ft 438 kts 255°
2026-04-24 05:17 13.14952 1.09305 26531 ft 440 kts 255°
2026-04-24 05:17 13.14043 1.06301 26863 ft 441 kts 255°
2026-04-24 05:17 13.13131 1.03285 27174 ft 443 kts 255°
2026-04-24 05:17 13.12213 1.00255 27447 ft 446 kts 255°
2026-04-24 05:18 13.11288 0.97203 27696 ft 448 kts 255°
2026-04-24 05:18 13.10362 0.94151 27777 ft 447 kts 255°
2026-04-24 05:18 13.09439 0.91110 27787 ft 445 kts 255°
2026-04-24 05:18 13.08519 0.88077 27786 ft 444 kts 255°
2026-04-24 05:19 13.07602 0.85055 27789 ft 444 kts 255°
2026-04-24 05:19 13.06684 0.82026 27788 ft 444 kts 255°
2026-04-24 05:19 13.05769 0.79007 27789 ft 444 kts 255°
2026-04-24 05:19 13.04853 0.75983 27788 ft 444 kts 255°
2026-04-24 05:20 13.03938 0.72959 27791 ft 444 kts 254°
2026-04-24 05:20 13.03034 0.69970 27792 ft 444 kts 254°
2026-04-24 05:20 13.02101 0.66904 27793 ft 444 kts 254°
2026-04-24 05:20 13.01190 0.63920 27793 ft 444 kts 254°
2026-04-24 05:21 13.00264 0.60886 27795 ft 444 kts 254°
2026-04-24 05:21 12.99342 0.57857 27795 ft 444 kts 254°
2026-04-24 05:21 12.98421 0.54840 27796 ft 444 kts 254°
2026-04-24 05:21 12.97494 0.51806 27797 ft 444 kts 254°
2026-04-24 05:22 12.96574 0.48782 27804 ft 444 kts 254°
2026-04-24 05:22 12.95651 0.45758 27804 ft 444 kts 254°
2026-04-24 05:22 12.94725 0.42729 27803 ft 444 kts 254°
2026-04-24 05:22 12.93812 0.39748 27803 ft 444 kts 254°
2026-04-24 05:23 12.92887 0.36724 27802 ft 444 kts 254°
2026-04-24 05:23 12.91961 0.33693 27802 ft 444 kts 254°
2026-04-24 05:23 12.91036 0.30675 27806 ft 444 kts 254°
2026-04-24 05:23 12.90109 0.27648 27810 ft 444 kts 254°
2026-04-24 05:24 12.89187 0.24631 27811 ft 444 kts 254°
2026-04-24 05:24 12.88263 0.21610 27811 ft 444 kts 254°
2026-04-24 05:24 12.87336 0.18588 27813 ft 444 kts 254°
2026-04-24 05:24 12.86412 0.15562 27814 ft 444 kts 254°
2026-04-24 05:25 12.85489 0.12543 27813 ft 444 kts 254°
2026-04-24 05:25 12.84564 0.09525 27811 ft 444 kts 254°
2026-04-24 05:25 12.83633 0.06508 27813 ft 444 kts 254°
2026-04-24 05:25 12.82700 0.03496 27811 ft 444 kts 254°
2026-04-24 05:26 12.81771 0.00477 27816 ft 444 kts 254°
2026-04-24 05:26 12.80847 -0.02541 27810 ft 444 kts 254°
2026-04-24 05:26 12.79923 -0.05566 27813 ft 444 kts 254°
2026-04-24 05:26 12.79002 -0.08576 27814 ft 444 kts 254°
2026-04-24 05:27 12.78091 -0.11555 27815 ft 443 kts 254°
2026-04-24 05:27 12.77166 -0.14571 27816 ft 443 kts 254°
2026-04-24 05:27 12.76234 -0.17588 27626 ft 446 kts 253°
2026-04-24 05:27 12.75295 -0.20624 26791 ft 447 kts 253°
2026-04-24 05:28 12.74359 -0.23649 26132 ft 444 kts 253°
2026-04-24 05:28 12.73431 -0.26650 25482 ft 440 kts 253°
2026-04-24 05:28 12.72509 -0.29633 24831 ft 437 kts 253°
2026-04-24 05:28 12.71598 -0.32579 23729 ft 434 kts 253°
2026-04-24 05:29 12.70684 -0.35543 22287 ft 436 kts 253°
2026-04-24 05:29 12.69769 -0.38513 21549 ft 435 kts 253°
2026-04-24 05:29 12.68866 -0.41440 21081 ft 426 kts 254°
2026-04-24 05:29 12.67978 -0.44307 20535 ft 421 kts 254°
2026-04-24 05:30 12.67098 -0.47144 20026 ft 415 kts 254°
2026-04-24 05:30 12.66230 -0.49946 19512 ft 410 kts 255°
2026-04-24 05:30 12.65370 -0.52711 19003 ft 405 kts 255°
2026-04-24 05:30 12.64521 -0.55449 18498 ft 401 kts 255°
2026-04-24 05:31 12.63680 -0.58160 17950 ft 398 kts 255°
2026-04-24 05:31 12.62845 -0.60849 17401 ft 395 kts 255°
2026-04-24 05:31 12.62018 -0.63517 16874 ft 391 kts 255°
2026-04-24 05:31 12.61195 -0.66163 16349 ft 388 kts 255°
2026-04-24 05:32 12.60382 -0.68785 15814 ft 386 kts 254°
2026-04-24 05:32 12.59571 -0.71402 15277 ft 384 kts 254°
2026-04-24 05:32 12.58775 -0.73976 14739 ft 383 kts 253°
2026-04-24 05:32 12.57972 -0.76573 14197 ft 382 kts 253°
2026-04-24 05:33 12.57170 -0.79161 13659 ft 382 kts 253°
2026-04-24 05:33 12.56361 -0.81756 13063 ft 381 kts 252°
2026-04-24 05:33 12.55555 -0.84332 12511 ft 379 kts 252°
2026-04-24 05:34 12.53963 -0.89450 11385 ft 375 kts 253°
2026-04-24 05:34 12.53176 -0.91991 10827 ft 374 kts 253°
2026-04-24 05:34 12.52654 -0.93673 10500 ft 372 kts 253°
2026-04-24 05:34 12.51883 -0.96142 10365 ft 357 kts 253°
2026-04-24 05:35 12.51139 -0.98522 10245 ft 345 kts 253°
2026-04-24 05:35 12.50423 -1.00814 10129 ft 332 kts 253°
2026-04-24 05:35 12.49729 -1.03033 9985 ft 322 kts 253°
2026-04-24 05:35 12.49053 -1.05198 9814 ft 317 kts 253°
2026-04-24 05:36 12.48381 -1.07358 9470 ft 320 kts 253°
2026-04-24 05:36 12.47743 -1.09543 9096 ft 318 kts 258°
2026-04-24 05:36 12.47547 -1.11787 8683 ft 315 kts 275°
2026-04-24 05:36 12.47743 -1.14003 8303 ft 312 kts 277°
2026-04-24 05:37 12.47947 -1.16206 7753 ft 311 kts 276°
2026-04-24 05:37 12.48145 -1.18408 7191 ft 310 kts 276°
2026-04-24 05:37 12.48338 -1.20598 6655 ft 308 kts 276°
2026-04-24 05:37 12.48529 -1.22777 6113 ft 307 kts 276°
2026-04-24 05:38 12.48720 -1.24946 5570 ft 304 kts 275°
2026-04-24 05:38 12.48907 -1.27083 5064 ft 300 kts 275°
2026-04-24 05:38 12.49091 -1.29193 4580 ft 295 kts 274°
2026-04-24 05:38 12.49271 -1.31267 4074 ft 290 kts 274°
2026-04-24 05:39 12.49448 -1.33298 3567 ft 285 kts 274°
2026-04-24 05:39 12.49622 -1.35297 3153 ft 276 kts 274°
2026-04-24 05:39 12.49790 -1.37185 3047 ft 257 kts 274°
2026-04-24 05:39 12.49917 -1.38904 3048 ft 233 kts 266°
2026-04-24 05:40 12.49644 -1.40451 3055 ft 212 kts 248°
2026-04-24 05:40 12.48980 -1.41715 3076 ft 196 kts 232°
2026-04-24 05:40 12.48038 -1.42688 3069 ft 191 kts 216°
2026-04-24 05:40 12.46934 -1.43434 3058 ft 188 kts 213°
2026-04-24 05:41 12.45838 -1.44167 3057 ft 188 kts 213°
2026-04-24 05:41 12.44740 -1.44905 3060 ft 189 kts 213°
2026-04-24 05:41 12.43648 -1.45640 3051 ft 182 kts 213°
2026-04-24 05:41 12.42603 -1.46344 2524 ft 183 kts 213°
2026-04-24 05:42 12.41593 -1.47022 2261 ft 162 kts 214°
2026-04-24 05:42 12.40702 -1.47617 2053 ft 146 kts 214°
2026-04-24 05:42 12.39873 -1.48170 1869 ft 139 kts 214°
2026-04-24 05:42 12.39072 -1.48707 1706 ft 136 kts 214°
2026-04-24 05:43 12.38275 -1.49241 1515 ft 137 kts 214°
2026-04-24 05:43 12.37480 -1.49778 1275 ft 137 kts 214°
2026-04-24 05:43 12.36690 -1.50317 1077 ft 137 kts 214°
2026-04-24 05:43 12.35922 -1.50831 1005 ft 119 kts 213°
2026-04-24 05:44 12.35371 -1.51201 1014 ft 70 kts 213°
2026-04-24 05:44 12.35070 -1.51401 1023 ft 46 kts 213°
2026-04-24 05:44 12.34999 -1.51486 1028 ft 6 kts 313°
2026-04-24 05:44 12.35023 -1.51523 1025 ft 6 kts 301°
2026-04-24 05:45 12.35048 -1.51561 1025 ft 7 kts 315°
2026-04-24 05:45 12.35095 -1.51555 1023 ft 8 kts 30°
2026-04-24 05:45 12.35149 -1.51517 1021 ft 11 kts 35°
2026-04-24 05:45 12.35218 -1.51468 1017 ft 13 kts 34°
2026-04-24 05:46 12.35295 -1.51416 1015 ft 13 kts 33°
2026-04-24 05:46 12.35371 -1.51366 1014 ft 13 kts 33°
2026-04-24 05:46 12.35444 -1.51321 1012 ft 9 kts 15°
2026-04-24 05:46 12.35491 -1.51328 1011 ft 3 kts 347°
2026-04-24 05:47 12.35502 -1.51330 1011 ft 0 kts 349°
2026-04-24 05:47 12.35503 -1.51330 1011 ft 0 kts 349°